Weather History for KFNT - January, 2012

Change the Weather History Date:

Saturday, January 28, 2012

  Actual Average Record
Temperature  
Mean Temperature 31 °F 22 °F  
Max Temperature 35 °F 30 °F 54 °F (2002)
Min Temperature 26 °F 15 °F -12 °F (1925)
Degree Days  
Heating Degree Days 34 43  
Month to date heating degree days 1006 1193  
Since 1 July heating degree days 3191 3838  
Cooling Degree Days 0 0  
Month to date cooling degree days 0 0  
Year to date cooling degree days 0 0  
Moisture  
Dew Point 25 °F    
Average Humidity 74    
Maximum Humidity 89    
Minimum Humidity 58    
Precipitation  
Precipitation 0.08 in 0.05 in 0.82 in (1994)
Month to date precipitation 1.80 1.49  
Year to date precipitation 1.80 1.49  
Snow  
Snow 0.60 in 0.40 in 2.50 in (2009)
Month to date snowfall 9.5 11.9  
Since 1 July snowfall 17.6 26.6  
Snow Depth T in    
Sea Level Pressure  
Sea Level Pressure 29.81 in    
Wind  
Wind Speed 15 mph (SW)    
Max Wind Speed 35 mph    
Max Gust Speed 45 mph    
Visibility 5 miles    
Events Snow    
T = Trace of Precipitation, MM = Missing Value Source: NWS Daily Summary

Daily Weather History Graph

Daily Weather History Graph

Search for Another Location

Airport or City:

Trip Planner

Search our weather history database for the weather conditions in past years. The results will help you decide how hot, cold, wet, or windy it might be!

Date:

Astronomy

Jan. 28, 2012 Rise Set
Actual Time 7:54 AM EST 5:41 PM EST
Civil Twilight 7:24 AM EST 6:12 PM EST
Nautical Twilight 6:49 AM EST 6:46 PM EST
Astronomical Twilight 6:16 AM EST 7:19 PM EST
Moon 10:06 AM EST (1/28) 11:40 PM EST (1/28)
Length of Visible Light 10h 48m
Length of Day
9h 47m
Waxing Crescent, 27% of the Moon is Illuminated
Jan 28
Waxing Crescent
Jan 30
First Quarter
Feb 7
Full
Feb 14
Last Quarter
Feb 21
New

Hourly Weather History & Observations

Time (EST) Temp. Windchill Dew Point Humidity Pressure Visibility Wind Dir Wind Speed Gust Speed Precip Events Conditions
12:53 AM 30.9 °F 26.2 °F 25.0 °F 79% 29.90 in 10.0 mi South 4.6 mph - N/A   Scattered Clouds
1:53 AM 32.0 °F 26.4 °F 24.1 °F 73% 29.87 in 10.0 mi South 5.8 mph - N/A   Overcast
2:53 AM 32.0 °F 24.2 °F 24.1 °F 73% 29.85 in 10.0 mi SSW 9.2 mph - N/A   Overcast
3:53 AM 33.1 °F 26.9 °F 25.0 °F 72% 29.83 in 10.0 mi South 6.9 mph - N/A   Overcast
4:53 AM 33.1 °F 25.5 °F 27.0 °F 78% 29.81 in 7.0 mi SSW 9.2 mph - N/A   Overcast
5:37 AM 32.0 °F 23.6 °F 28.4 °F 87% 29.76 in 2.0 mi SSW 10.4 mph - 0.00 in Snow Light Snow
5:53 AM 32.0 °F 24.8 °F 28.9 °F 88% 29.78 in 1.8 mi SSW 8.1 mph - 0.00 in Snow Light Snow
6:02 AM 32.0 °F 24.8 °F 28.4 °F 87% 29.76 in 2.5 mi SSW 8.1 mph - 0.01 in Snow Light Snow
6:30 AM 32.0 °F 26.4 °F 28.4 °F 87% 29.74 in 1.5 mi South 5.8 mph - 0.01 in Snow Light Snow
6:53 AM 32.0 °F 24.8 °F 28.4 °F 87% 29.73 in 2.5 mi South 8.1 mph - N/A Snow Light Snow
7:53 AM 33.8 °F 26.4 °F 30.2 °F 87% 29.70 in 2.5 mi SSW 9.2 mph - N/A Snow Light Snow
7:56 AM 33.8 °F 26.4 °F 30.2 °F 87% 29.70 in 2.0 mi South 9.2 mph - 0.00 in Snow Light Snow
8:12 AM 33.8 °F 26.4 °F 30.2 °F 87% 29.70 in 2.0 mi SSW 9.2 mph - 0.01 in Snow Light Snow
8:18 AM 33.8 °F 26.4 °F 30.2 °F 87% 29.69 in 1.0 mi SSW 9.2 mph - 0.01 in Snow Light Snow
8:25 AM 33.8 °F 26.4 °F 30.2 °F 87% 29.69 in 0.8 mi SSW 9.2 mph - 0.01 in Snow Light Snow
8:41 AM 33.8 °F 25.8 °F 30.2 °F 87% 29.69 in 0.8 mi SSW 10.4 mph - 0.02 in Snow Light Snow
8:53 AM 33.1 °F 24.9 °F 30.9 °F 92% 29.71 in 0.8 mi SSW 10.4 mph - 0.02 in Snow Light Snow
9:53 AM 34.0 °F 24.6 °F 30.9 °F 89% 29.69 in 1.0 mi SW 13.8 mph - 0.03 in Snow Light Snow
10:50 AM 33.8 °F 23.5 °F 30.2 °F 87% 29.66 in 5.0 mi SW 16.1 mph 24.2 mph 0.01 in Snow Light Snow
10:53 AM 34.0 °F 23.0 °F 30.0 °F 85% 29.69 in 5.0 mi SW 18.4 mph 25.3 mph 0.01 in Snow Light Snow
11:00 AM 35.6 °F 25.9 °F 30.2 °F 81% 29.66 in 9.0 mi SW 16.1 mph 25.3 mph 0.00 in   Overcast
11:07 AM 35.6 °F 24.2 °F 30.2 °F 81% 29.67 in 10.0 mi WSW 21.9 mph 28.8 mph 0.00 in   Overcast
11:26 AM 35.6 °F 24.8 °F 28.4 °F 75% 29.67 in 1.8 mi WSW 19.6 mph 31.1 mph 0.00 in Snow Light Snow
11:47 AM 33.8 °F 20.3 °F 28.4 °F 81% 29.69 in 0.8 mi West 28.8 mph 39.1 mph 0.00 in Snow Light Snow
11:53 AM 33.1 °F 18.9 °F 28.0 °F 82% 29.72 in 1.0 mi West 31.1 mph 42.6 mph 0.00 in Snow Light Snow
12:02 PM 33.8 °F 20.5 °F 28.4 °F 81% 29.70 in 3.0 mi West 27.6 mph 41.4 mph 0.00 in Snow Light Snow
12:53 PM 34.0 °F 21.8 °F 25.0 °F 70% 29.76 in 10.0 mi West 23.0 mph 39.1 mph 0.00 in   Mostly Cloudy
1:53 PM 33.1 °F 19.6 °F 21.0 °F 61% 29.80 in 10.0 mi West 27.6 mph 36.8 mph N/A   Partly Cloudy
2:53 PM 32.0 °F 17.6 °F 19.9 °F 61% 29.85 in 10.0 mi West 29.9 mph 40.3 mph N/A   Mostly Cloudy
3:53 PM 30.9 °F 16.7 °F 19.9 °F 64% 29.90 in 5.0 mi West 27.6 mph 40.3 mph 0.00 in Snow Light Snow
3:57 PM 30.2 °F 15.4 °F 21.2 °F 69% 29.87 in 1.8 mi West 28.8 mph 40.3 mph 0.00 in Snow Light Snow
4:08 PM 28.4 °F 13.8 °F 21.2 °F 74% 29.88 in 3.0 mi West 25.3 mph 32.2 mph 0.00 in Snow Light Snow
4:13 PM 28.4 °F 13.3 °F 21.2 °F 74% 29.89 in 1.0 mi WNW 27.6 mph 35.7 mph 0.00 in Snow Light Snow
4:20 PM 28.4 °F 14.1 °F 23.0 °F 80% 29.89 in 1.0 mi West 24.2 mph 35.7 mph N/A Snow Light Snow
4:39 PM 28.4 °F 15.4 °F 21.2 °F 74% 29.90 in 2.0 mi West 19.6 mph 31.1 mph 0.00 in Snow Light Snow
4:44 PM 28.4 °F 16.6 °F 21.2 °F 74% 29.91 in 5.0 mi West 16.1 mph 28.8 mph 0.00 in Snow Light Snow
4:53 PM 28.4 °F 17.0 °F 21.2 °F 74% 29.91 in 10.0 mi West 15.0 mph 28.8 mph N/A   Partly Cloudy
5:53 PM 28.9 °F 16.1 °F 18.0 °F 64% 29.97 in 10.0 mi West 19.6 mph 28.8 mph N/A   Mostly Cloudy
6:53 PM 28.0 °F 18.1 °F 19.0 °F 69% 30.00 in 10.0 mi WSW 11.5 mph - N/A   Mostly Cloudy
7:53 PM 28.9 °F 17.3 °F 18.0 °F 64% 30.02 in 10.0 mi WSW 16.1 mph 23.0 mph N/A   Mostly Cloudy
8:53 PM 30.0 °F 20.5 °F 17.1 °F 59% 30.02 in 10.0 mi WSW 11.5 mph 20.7 mph N/A   Mostly Cloudy
9:53 PM 28.9 °F 19.8 °F 18.0 °F 64% 30.02 in 10.0 mi WSW 10.4 mph - N/A   Overcast
10:53 PM 27.0 °F 18.0 °F 17.1 °F 66% 30.01 in 10.0 mi WSW 9.2 mph - N/A   Scattered Clouds
11:53 PM 26.6 °F 18.2 °F 17.6 °F 69% 29.98 in 10.0 mi SW 8.1 mph - N/A   Scattered Clouds